| time (UTC) | temp F | wind direction | speed MPH | gust MPH | rain 1hr in | rain 24hr in | rain mn in | humidity % | barometer mb |
| 20260509002016 | 53 | 66 | 0.0 | 3.0 | 0.00 | 0.00 | 0.00 | 38 | 1003.1 |
| 20260509001514 | 53 | 195 | 3.0 | 4.0 | 0.00 | 0.00 | 0.00 | 38 | 1003.2 |
| 20260509001009 | 54 | 161 | 2.0 | 5.0 | 0.00 | 0.00 | 0.00 | 38 | 1003.2 |
| 20260509000508 | 53 | 188 | 3.0 | 5.0 | 0.00 | 0.00 | 0.00 | 39 | 1003.2 |
| 20260509000004 | 53 | 203 | 1.0 | 3.0 | 0.00 | 0.00 | 0.00 | 38 | 1003.3 |
| 20260508235502 | 53 | 239 | 2.0 | 3.0 | 0.00 | 0.00 | 0.00 | 39 | 1003.4 |
| 20260508234958 | 53 | 172 | 0.0 | 3.0 | 0.00 | 0.00 | 0.00 | 38 | 1003.5 |
| 20260508234455 | 53 | 151 | 3.0 | 7.0 | 0.00 | 0.00 | 0.00 | 40 | 1003.5 |
| 20260508233952 | 52 | 107 | 0.0 | 4.0 | 0.00 | 0.00 | 0.00 | 38 | 1003.4 |
| 20260508233452 | 52 | 170 | 3.0 | 5.0 | 0.00 | 0.00 | 0.00 | 39 | 1003.7 |
| 20260508232948 | 51 | 270 | 0.0 | 2.0 | 0.00 | 0.00 | 0.00 | 40 | 1003.7 |
| 20260508232445 | 51 | 90 | 0.0 | 5.0 | 0.00 | 0.00 | 0.00 | 40 | 1003.7 |
| 20260508231942 | 51 | 270 | 0.0 | 4.0 | 0.00 | 0.00 | 0.00 | 39 | 1003.8 |
| 20260508231439 | 52 | 188 | 5.0 | 5.0 | 0.00 | 0.00 | 0.00 | 39 | 1003.8 |
| 20260508230936 | 53 | 66 | 0.0 | 4.0 | 0.00 | 0.00 | 0.00 | 39 | 1004.1 |
| 20260508230433 | 52 | 140 | 3.0 | 4.0 | 0.00 | 0.00 | 0.00 | 39 | 1004.3 |
| 20260508225930 | 52 | 305 | 0.0 | 5.0 | 0.00 | 0.00 | 0.00 | 40 | 1004.2 |
| 20260508225427 | 51 | 148 | 3.0 | 4.0 | 0.00 | 0.00 | 0.00 | 40 | 1004.2 |
| 20260508224924 | 51 | 152 | 6.0 | 8.0 | 0.00 | 0.00 | 0.00 | 40 | 1004.4 |
| 20260508224422 | 52 | 175 | 0.0 | 3.0 | 0.00 | 0.00 | 0.00 | 40 | 1004.1 |
| 20260508223919 | 52 | 90 | 3.0 | 5.0 | 0.00 | 0.00 | 0.00 | 40 | 1004.2 |
| 20260508223417 | 52 | 261 | 0.0 | 4.0 | 0.00 | 0.00 | 0.00 | 39 | 1004.3 |
| 20260508222914 | 52 | 158 | 4.0 | 5.0 | 0.00 | 0.00 | 0.00 | 40 | 1004.7 |
| 20260508222411 | 54 | 135 | 0.0 | 5.0 | 0.00 | 0.00 | 0.00 | 37 | 1004.6 |
| 20260508221907 | 54 | 190 | 2.0 | 6.0 | 0.00 | 0.00 | 0.00 | 38 | 1004.8 |
| 20260508221403 | 53 | 276 | 3.0 | 4.0 | 0.00 | 0.00 | 0.00 | 38 | 1004.6 |
| 20260508220859 | 52 | 196 | 3.0 | 7.0 | 0.00 | 0.00 | 0.00 | 39 | 1004.7 |
| 20260508220356 | 52 | 157 | 5.0 | 10.0 | 0.00 | 0.00 | 0.00 | 38 | 1004.9 |
| 20260508215852 | 51 | 180 | 2.0 | 7.0 | 0.00 | 0.00 | 0.00 | 40 | 1004.7 |
| 20260508215349 | 51 | 158 | 5.0 | 9.0 | 0.00 | 0.00 | 0.00 | 42 | 1004.9 |
| 20260508214846 | 52 | 117 | 1.0 | 9.0 | 0.00 | 0.00 | 0.00 | 40 | 1005.0 |
| 20260508214344 | 53 | 101 | 2.0 | 4.0 | 0.00 | 0.00 | 0.00 | 40 | 1005.0 |
| 20260508213840 | 53 | 192 | 3.0 | 5.0 | 0.00 | 0.00 | 0.00 | 39 | 1005.1 |
| 20260508213337 | 53 | 341 | 2.0 | 4.0 | 0.00 | 0.00 | 0.00 | 41 | 1005.3 |
| 20260508212833 | 51 | 144 | 6.0 | 6.0 | 0.00 | 0.00 | 0.00 | 40 | 1005.4 |
| 20260508212330 | 52 | 146 | 3.0 | 7.0 | 0.00 | 0.00 | 0.00 | 41 | 1005.5 |
| 20260508211825 | 52 | 165 | 0.0 | 4.0 | 0.00 | 0.00 | 0.00 | 41 | 1005.5 |
| 20260508211321 | 51 | 94 | 3.0 | 6.0 | 0.00 | 0.00 | 0.00 | 43 | 1005.5 |
| 20260508210819 | 51 | 150 | 2.0 | 6.0 | 0.00 | 0.00 | 0.00 | 46 | 1005.6 |
| 20260508210315 | 50 | 167 | 3.0 | 7.0 | 0.00 | 0.00 | 0.00 | 44 | 1005.7 |
| 20260508205812 | 51 | 123 | 2.0 | 3.0 | 0.00 | 0.00 | 0.00 | 47 | 1006.1 |
| 20260508205308 | 50 | 157 | 3.0 | 5.0 | 0.00 | 0.00 | 0.00 | 46 | 1005.9 |
| 20260508204805 | 50 | 175 | 3.0 | 4.0 | 0.00 | 0.00 | 0.00 | 46 | 1006.0 |
| 20260508204302 | 49 | 146 | 4.0 | 10.0 | 0.00 | 0.00 | 0.00 | 47 | 1006.0 |
| 20260508203758 | 50 | 45 | 5.0 | 6.0 | 0.00 | 0.00 | 0.00 | 47 | 1006.1 |
| 20260508203254 | 50 | 103 | 2.0 | 6.0 | 0.00 | 0.00 | 0.00 | 50 | 1006.2 |
| 20260508202750 | 50 | 90 | 0.0 | 4.0 | 0.00 | 0.00 | 0.00 | 47 | 1006.4 |
| 20260508202247 | 49 | 119 | 2.0 | 7.0 | 0.00 | 0.00 | 0.00 | 50 | 1006.5 |
| 20260508201744 | 49 | 129 | 2.0 | 7.0 | 0.00 | 0.00 | 0.00 | 50 | 1006.5 |
| 20260508201241 | 51 | 137 | 4.0 | 6.0 | 0.00 | 0.00 | 0.00 | 46 | 1006.5 |
| 20260508200738 | 50 | 162 | 3.0 | 8.0 | 0.00 | 0.00 | 0.00 | 49 | 1006.6 |
| 20260508200234 | 49 | 139 | 6.0 | 9.0 | 0.00 | 0.00 | 0.00 | 48 | 1006.8 |
| 20260508195730 | 49 | 22 | 2.0 | 4.0 | 0.00 | 0.00 | 0.00 | 50 | 1006.5 |
| 20260508195227 | 49 | 184 | 2.0 | 4.0 | 0.00 | 0.00 | 0.00 | 55 | 1006.7 |
| 20260508194724 | 47 | 208 | 4.0 | 8.0 | 0.00 | 0.00 | 0.00 | 56 | 1006.9 |
| 20260508194220 | 48 | 199 | 4.0 | 4.0 | 0.00 | 0.00 | 0.00 | 55 | 1006.7 |
| 20260508193717 | 48 | 217 | 3.0 | 7.0 | 0.00 | 0.00 | 0.00 | 56 | 1006.9 |
| 20260508193214 | 48 | 175 | 2.0 | 3.0 | 0.00 | 0.00 | 0.00 | 60 | 1007.0 |
| 20260508192710 | 48 | 7 | 1.0 | 3.0 | 0.00 | 0.00 | 0.00 | 61 | 1006.9 |
| 20260508192208 | 47 | 81 | 0.0 | 5.0 | 0.00 | 0.00 | 0.00 | 61 | 1007.2 |
| 20260508191705 | 46 | 199 | 3.0 | 9.0 | 0.00 | 0.00 | 0.00 | 61 | 1007.2 |
| 20260508191201 | 47 | 180 | 1.0 | 6.0 | 0.00 | 0.00 | 0.00 | 62 | 1007.3 |
| 20260508190659 | 46 | 164 | 3.0 | 6.0 | 0.00 | 0.00 | 0.00 | 64 | 1007.3 |
| 20260508190155 | 46 | 229 | 5.0 | 5.0 | 0.00 | 0.00 | 0.00 | 66 | 1007.7 |
| 20260508185652 | 46 | 270 | 2.0 | 3.0 | 0.00 | 0.00 | 0.00 | 66 | 1007.6 |
| 20260508185149 | 45 | 210 | 3.0 | 5.0 | 0.00 | 0.00 | 0.00 | 67 | 1007.7 |
| 20260508184646 | 45 | 334 | 2.0 | 5.0 | 0.00 | 0.00 | 0.00 | 69 | 1007.6 |
| 20260508184144 | 44 | 266 | 2.0 | 6.0 | 0.00 | 0.00 | 0.00 | 68 | 1007.8 |
| 20260508183640 | 44 | 163 | 2.0 | 7.0 | 0.00 | 0.00 | 0.00 | 69 | 1008.0 |
| 20260508183136 | 43 | 217 | 2.0 | 4.0 | 0.00 | 0.00 | 0.00 | 69 | 1007.9 |
| 20260508182632 | 43 | 220 | 1.0 | 8.0 | 0.00 | 0.00 | 0.00 | 70 | 1008.1 |
| 20260508182129 | 44 | 300 | 1.0 | 4.0 | 0.00 | 0.00 | 0.00 | 69 | 1008.0 |
| 20260508181625 | 44 | 294 | 1.0 | 2.0 | 0.00 | 0.00 | 0.00 | 69 | 1008.2 |
| 20260508181123 | 44 | 255 | 0.0 | 4.0 | 0.00 | 0.00 | 0.00 | 71 | 1008.0 |
| 20260508180619 | 44 | 345 | 0.0 | 3.0 | 0.00 | 0.00 | 0.00 | 71 | 1008.4 |
| 20260508180115 | 43 | 277 | 1.0 | 3.0 | 0.00 | 0.00 | 0.00 | 72 | 1008.3 |
| 20260508175612 | 44 | 210 | 2.0 | 3.0 | 0.00 | 0.00 | 0.00 | 72 | 1008.4 |
| 20260508175109 | 43 | 270 | 0.0 | 2.0 | 0.00 | 0.00 | 0.00 | 71 | 1008.4 |
| 20260508174607 | 44 | 287 | 0.0 | 3.0 | 0.00 | 0.00 | 0.00 | 72 | 1008.3 |
| 20260508174103 | 43 | 184 | 0.0 | 7.0 | 0.00 | 0.00 | 0.00 | 71 | 1008.6 |
| 20260508173601 | 44 | 152 | 3.0 | 3.0 | 0.00 | 0.00 | 0.00 | 71 | 1008.5 |
| 20260508173056 | 43 | 60 | 1.0 | 4.0 | 0.00 | 0.00 | 0.00 | 72 | 1008.6 |
| 20260508172554 | 43 | 294 | 0.0 | 3.0 | 0.00 | 0.00 | 0.00 | 73 | 1008.8 |
| 20260508172050 | 43 | 291 | 1.0 | 2.0 | 0.00 | 0.00 | 0.00 | 73 | 1008.8 |
| 20260508171547 | 43 | 168 | 2.0 | 2.0 | 0.00 | 0.00 | 0.00 | 73 | 1008.7 |
| 20260508171043 | 43 | 334 | 1.0 | 4.0 | 0.00 | 0.00 | 0.00 | 74 | 1008.9 |
| 20260508170541 | 43 | 180 | 0.0 | 2.0 | 0.00 | 0.00 | 0.00 | 74 | 1008.8 |
| 20260508170038 | 42 | 186 | 1.0 | 3.0 | 0.00 | 0.00 | 0.00 | 73 | 1008.9 |
| 20260508165535 | 43 | 277 | 0.0 | 1.0 | 0.00 | 0.00 | 0.00 | 74 | 1009.0 |
| 20260508165032 | 43 | 142 | 2.0 | 2.0 | 0.00 | 0.00 | 0.00 | 73 | 1009.0 |
| 20260508164528 | 43 | 180 | 0.0 | 1.0 | 0.00 | 0.00 | 0.00 | 76 | 1008.9 |
| 20260508164025 | 43 | 270 | 0.0 | 0.0 | 0.00 | 0.00 | 0.00 | 77 | 1009.0 |
| 20260508163523 | 43 | 270 | 0.0 | 1.0 | 0.00 | 0.00 | 0.00 | 77 | 1009.1 |
| 20260508163019 | 42 | 15 | 0.0 | 1.0 | 0.00 | 0.00 | 0.00 | 77 | 1009.0 |
| 20260508162516 | 42 | 15 | 0.0 | 1.0 | 0.00 | 0.00 | 0.00 | 80 | 1009.0 |
| 20260508162013 | 41 | 0 | 0.0 | 2.0 | 0.00 | 0.00 | 0.00 | 80 | 1009.0 |
| 20260508161510 | 41 | 23 | 0.0 | 3.0 | 0.00 | 0.00 | 0.00 | 81 | 1009.3 |
| 20260508161007 | 41 | 40 | 1.0 | 3.0 | 0.00 | 0.00 | 0.00 | 81 | 1009.3 |
| 20260508160506 | 41 | 49 | 0.0 | 2.0 | 0.00 | 0.00 | 0.00 | 82 | 1009.5 |
| 20260508160002 | 41 | 23 | 3.0 | 3.0 | 0.00 | 0.00 | 0.00 | 83 | 1009.4 |
| 20260508155459 | 41 | 0 | 0.0 | 3.0 | 0.00 | 0.00 | 0.00 | 83 | 1009.5 |
| 20260508154955 | 41 | 66 | 0.0 | 1.0 | 0.00 | 0.00 | 0.00 | 85 | 1009.6 |
| 20260508154454 | 40 | 0 | 0.0 | 1.0 | 0.00 | 0.00 | 0.00 | 85 | 1009.6 |
| 20260508153950 | 40 | 66 | 0.0 | 0.0 | 0.00 | 0.00 | 0.00 | 85 | 1009.6 |
| 20260508153447 | 40 | 15 | 0.0 | 1.0 | 0.00 | 0.00 | 0.00 | 87 | 1009.9 |
| 20260508152943 | 40 | 23 | 1.0 | 2.0 | 0.00 | 0.00 | 0.00 | 86 | 1009.5 |
| 20260508152440 | 40 | 15 | 0.0 | 0.0 | 0.00 | 0.00 | 0.00 | 87 | 1009.7 |
| 20260508151936 | 39 | 35 | 0.0 | 1.0 | 0.00 | 0.00 | 0.00 | 87 | 1009.9 |
| 20260508151433 | 39 | 33 | 0.0 | 0.0 | 0.00 | 0.00 | 0.00 | 88 | 1010.1 |
| 20260508150929 | 38 | 66 | 0.0 | 1.0 | 0.00 | 0.00 | 0.00 | 88 | 1009.7 |
| 20260508150426 | 38 | 29 | 0.0 | 0.0 | 0.00 | 0.00 | 0.00 | 89 | 1010.1 |
| 20260508145922 | 38 | 63 | 0.0 | 0.0 | 0.00 | 0.00 | 0.00 | 89 | 1010.2 |
| 20260508145419 | 37 | 0 | 0.0 | 1.0 | 0.00 | 0.00 | 0.00 | 88 | 1010.0 |
| 20260508144915 | 37 | 29 | 0.0 | 0.0 | 0.00 | 0.00 | 0.00 | 88 | 1010.3 |
| 20260508144413 | 37 | 35 | 0.0 | 0.0 | 0.00 | 0.00 | 0.00 | 89 | 1010.2 |
| 20260508143910 | 38 | 66 | 0.0 | 1.0 | 0.00 | 0.00 | 0.00 | 88 | 1010.2 |
| 20260508143408 | 38 | 40 | 0.0 | 0.0 | 0.00 | 0.00 | 0.00 | 88 | 1010.4 |
| 20260508142904 | 38 | 40 | 0.0 | 1.0 | 0.00 | 0.00 | 0.00 | 88 | 1010.6 |
| 20260508142401 | 38 | 75 | 0.0 | 0.0 | 0.00 | 0.00 | 0.00 | 88 | 1010.5 |
| 20260508141857 | 37 | 75 | 0.0 | 0.0 | 0.00 | 0.00 | 0.00 | 88 | 1010.7 |
| 20260508141354 | 37 | 75 | 0.0 | 0.0 | 0.00 | 0.00 | 0.00 | 89 | 1010.7 |
| 20260508140852 | 37 | 69 | 1.0 | 2.0 | 0.00 | 0.00 | 0.00 | 88 | 1010.7 |
| 20260508140349 | 38 | 23 | 0.0 | 0.0 | 0.00 | 0.00 | 0.00 | 88 | 1011.0 |
| 20260508135844 | 37 | 23 | 0.0 | 1.0 | 0.00 | 0.00 | 0.00 | 87 | 1011.0 |
| 20260508135341 | 38 | 75 | 0.0 | 0.0 | 0.00 | 0.00 | 0.00 | 88 | 1011.0 |
| 20260508134837 | 37 | 75 | 0.0 | 1.0 | 0.00 | 0.00 | 0.00 | 89 | 1010.9 |
| 20260508134334 | 37 | 66 | 0.0 | 0.0 | 0.00 | 0.00 | 0.00 | 89 | 1010.9 |
| 20260508133831 | 37 | 15 | 0.0 | 0.0 | 0.00 | 0.00 | 0.00 | 89 | 1011.0 |
| 20260508133329 | 37 | 12 | 1.0 | 1.0 | 0.00 | 0.00 | 0.00 | 89 | 1011.3 |
| 20260508132826 | 37 | 15 | 0.0 | 1.0 | 0.00 | 0.00 | 0.00 | 87 | 1011.4 |
| 20260508132323 | 38 | 40 | 0.0 | 0.0 | 0.00 | 0.00 | 0.00 | 88 | 1011.2 |
| 20260508131820 | 38 | 173 | 0.0 | 0.0 | 0.00 | 0.00 | 0.00 | 88 | 1011.3 |
| 20260508131315 | 37 | 173 | 0.0 | 0.0 | 0.00 | 0.00 | 0.00 | 88 | 1011.2 |
| 20260508130812 | 37 | 49 | 0.0 | 1.0 | 0.00 | 0.00 | 0.00 | 87 | 1011.4 |
| 20260508130309 | 38 | 105 | 0.0 | 1.0 | 0.00 | 0.00 | 0.00 | 87 | 1011.3 |
| 20260508125805 | 37 | 15 | 0.0 | 0.0 | 0.00 | 0.00 | 0.00 | 87 | 1011.6 |
| 20260508125305 | 37 | 15 | 0.0 | 0.0 | 0.00 | 0.00 | 0.00 | 87 | 1011.4 |
| 20260508124800 | 37 | 15 | 0.0 | 0.0 | 0.00 | 0.00 | 0.00 | 88 | 1011.6 |
| 20260508124256 | 37 | 29 | 0.0 | 1.0 | 0.00 | 0.00 | 0.00 | 88 | 1011.5 |
| 20260508123755 | 37 | 35 | 0.0 | 2.0 | 0.00 | 0.00 | 0.00 | 88 | 1011.5 |
| 20260508123253 | 37 | 29 | 0.0 | 0.0 | 0.00 | 0.00 | 0.00 | 88 | 1011.8 |
| 20260508122748 | 37 | 0 | 0.0 | 0.0 | 0.00 | 0.00 | 0.00 | 87 | 1011.5 |
| 20260508122245 | 37 | 66 | 0.0 | 1.0 | 0.00 | 0.00 | 0.00 | 87 | 1011.5 |
| 20260508121743 | 38 | 15 | 0.0 | 0.0 | 0.00 | 0.00 | 0.00 | 87 | 1011.9 |
| 20260508121242 | 38 | 7 | 0.0 | 1.0 | 0.00 | 0.00 | 0.00 | 87 | 1011.8 |
| 20260508120738 | 38 | 35 | 0.0 | 1.0 | 0.00 | 0.00 | 0.00 | 86 | 1011.9 |
| 20260508120237 | 38 | 14 | 0.0 | 1.0 | 0.00 | 0.00 | 0.00 | 86 | 1011.8 |
| 20260508115734 | 39 | 15 | 0.0 | 1.0 | 0.00 | 0.00 | 0.00 | 85 | 1012.1 |
| 20260508115231 | 39 | 29 | 0.0 | 1.0 | 0.00 | 0.00 | 0.00 | 85 | 1012.3 |
| 20260508114727 | 39 | 7 | 1.0 | 2.0 | 0.00 | 0.00 | 0.00 | 85 | 1012.1 |
| 20260508114224 | 39 | 7 | 0.0 | 1.0 | 0.00 | 0.00 | 0.00 | 85 | 1012.2 |
| 20260508113721 | 40 | 11 | 1.0 | 1.0 | 0.00 | 0.00 | 0.00 | 84 | 1012.4 |
| 20260508113220 | 40 | 23 | 1.0 | 1.0 | 0.00 | 0.00 | 0.00 | 83 | 1012.4 |
| 20260508112715 | 40 | 23 | 1.0 | 2.0 | 0.00 | 0.00 | 0.00 | 83 | 1012.5 |
| 20260508112212 | 40 | 15 | 0.0 | 0.0 | 0.00 | 0.00 | 0.00 | 83 | 1012.4 |
| 20260508111709 | 41 | 7 | 0.0 | 1.0 | 0.00 | 0.00 | 0.00 | 83 | 1012.6 |
| 20260508111207 | 41 | 0 | 0.0 | 1.0 | 0.00 | 0.00 | 0.00 | 83 | 1012.6 |
| 20260508110704 | 41 | 15 | 0.0 | 0.0 | 0.00 | 0.00 | 0.00 | 82 | 1012.8 |
| 20260508110201 | 41 | 255 | 0.0 | 3.0 | 0.00 | 0.00 | 0.00 | 82 | 1012.5 |
| 20260508105700 | 41 | 180 | 0.0 | 1.0 | 0.00 | 0.00 | 0.00 | 82 | 1012.8 |
| 20260508105158 | 41 | 0 | 0.0 | 4.0 | 0.00 | 0.00 | 0.00 | 82 | 1012.8 |
| 20260508104655 | 41 | 9 | 0.0 | 3.0 | 0.00 | 0.00 | 0.00 | 82 | 1012.7 |
| 20260508104152 | 41 | 260 | 2.0 | 3.0 | 0.00 | 0.00 | 0.00 | 81 | 1013.1 |
| 20260508103649 | 41 | 274 | 2.0 | 4.0 | 0.00 | 0.00 | 0.00 | 81 | 1012.9 |
| 20260508103146 | 41 | 331 | 3.0 | 3.0 | 0.00 | 0.00 | 0.00 | 81 | 1012.8 |
| 20260508102643 | 41 | 5 | 0.0 | 3.0 | 0.00 | 0.00 | 0.00 | 80 | 1013.0 |
| 20260508102141 | 42 | 0 | 1.0 | 3.0 | 0.00 | 0.00 | 0.00 | 79 | 1013.0 |
| 20260508101638 | 42 | 262 | 0.0 | 0.0 | 0.00 | 0.00 | 0.00 | 78 | 1013.0 |
| 20260508101136 | 42 | 233 | 0.0 | 3.0 | 0.00 | 0.00 | 0.00 | 78 | 1013.1 |
| 20260508100633 | 42 | 311 | 0.0 | 4.0 | 0.00 | 0.00 | 0.00 | 78 | 1013.0 |
| 20260508100131 | 42 | 174 | 3.0 | 3.0 | 0.00 | 0.00 | 0.00 | 77 | 1013.2 |
| 20260508095627 | 42 | 203 | 0.0 | 4.0 | 0.00 | 0.00 | 0.00 | 76 | 1012.9 |
| 20260508095124 | 43 | 259 | 0.0 | 4.0 | 0.00 | 0.00 | 0.00 | 75 | 1012.8 |
| 20260508094621 | 43 | 190 | 2.0 | 2.0 | 0.00 | 0.00 | 0.00 | 74 | 1013.2 |
| 20260508094118 | 43 | 294 | 0.0 | 2.0 | 0.00 | 0.00 | 0.00 | 73 | 1013.0 |
| 20260508093615 | 43 | 283 | 2.0 | 4.0 | 0.00 | 0.00 | 0.00 | 73 | 1013.0 |
| 20260508093113 | 43 | 183 | 3.0 | 4.0 | 0.00 | 0.00 | 0.00 | 73 | 1013.2 |
| 20260508092610 | 43 | 170 | 3.0 | 4.0 | 0.00 | 0.00 | 0.00 | 73 | 1013.3 |
| 20260508092108 | 44 | 249 | 0.0 | 2.0 | 0.00 | 0.00 | 0.00 | 72 | 1013.2 |
| 20260508091605 | 44 | 255 | 0.0 | 3.0 | 0.00 | 0.00 | 0.00 | 70 | 1013.1 |
| 20260508091102 | 44 | 183 | 3.0 | 4.0 | 0.00 | 0.00 | 0.00 | 66 | 1013.2 |
| 20260508090600 | 44 | 175 | 0.0 | 3.0 | 0.00 | 0.00 | 0.00 | 57 | 1013.1 |
| 20260508090056 | 44 | 180 | 2.0 | 4.0 | 0.00 | 0.00 | 0.00 | 57 | 1013.0 |
| 20260508085553 | 45 | 184 | 2.0 | 5.0 | 0.00 | 0.00 | 0.00 | 58 | 1013.1 |
| 20260508085050 | 45 | 139 | 4.0 | 4.0 | 0.00 | 0.00 | 0.00 | 57 | 1013.1 |
| 20260508084547 | 45 | 170 | 3.0 | 9.0 | 0.00 | 0.00 | 0.00 | 56 | 1013.2 |
| 20260508084044 | 45 | 162 | 2.0 | 4.0 | 0.00 | 0.00 | 0.00 | 56 | 1013.4 |
| 20260508083541 | 45 | 180 | 2.0 | 4.0 | 0.00 | 0.00 | 0.00 | 56 | 1013.3 |
| 20260508083038 | 45 | 196 | 3.0 | 5.0 | 0.00 | 0.00 | 0.00 | 56 | 1013.2 |
| 20260508082534 | 45 | 151 | 2.0 | 6.0 | 0.00 | 0.00 | 0.00 | 56 | 1013.1 |
| 20260508082031 | 45 | 146 | 0.0 | 3.0 | 0.00 | 0.00 | 0.00 | 57 | 1013.4 |
| 20260508081529 | 45 | 143 | 2.0 | 3.0 | 0.00 | 0.00 | 0.00 | 57 | 1013.2 |
| 20260508081025 | 45 | 116 | 0.0 | 5.0 | 0.00 | 0.00 | 0.00 | 57 | 1013.4 |
| 20260508080523 | 45 | 160 | 3.0 | 5.0 | 0.00 | 0.00 | 0.00 | 57 | 1013.6 |
| 20260508080020 | 45 | 152 | 2.0 | 11.0 | 0.00 | 0.16 | 0.16 | 56 | 1013.4 |
| 20260508075516 | 45 | 126 | 0.0 | 5.0 | 0.00 | 0.16 | 0.16 | 58 | 1013.5 |
| 20260508075014 | 45 | 190 | 3.0 | 6.0 | 0.00 | 0.16 | 0.16 | 58 | 1013.7 |
| 20260508074512 | 45 | 83 | 1.0 | 5.0 | 0.00 | 0.16 | 0.16 | 58 | 1013.5 |
| 20260508074008 | 44 | 129 | 2.0 | 3.0 | 0.00 | 0.16 | 0.16 | 59 | 1013.7 |
| 20260508073505 | 45 | 195 | 0.0 | 5.0 | 0.00 | 0.16 | 0.16 | 59 | 1013.5 |
| 20260508073003 | 45 | 135 | 2.0 | 3.0 | 0.00 | 0.16 | 0.16 | 60 | 1013.6 |
| 20260508072458 | 45 | 112 | 2.0 | 4.0 | 0.00 | 0.16 | 0.16 | 59 | 1013.7 |
| 20260508071956 | 44 | 132 | 2.0 | 4.0 | 0.00 | 0.16 | 0.16 | 59 | 1013.8 |
| 20260508071454 | 45 | 155 | 3.0 | 4.0 | 0.00 | 0.16 | 0.16 | 60 | 1013.7 |
| 20260508070951 | 44 | 153 | 3.0 | 5.0 | 0.00 | 0.16 | 0.16 | 61 | 1014.0 |
| 20260508070449 | 44 | 148 | 2.0 | 3.0 | 0.00 | 0.16 | 0.16 | 61 | 1013.8 |
| 20260508065947 | 44 | 40 | 1.0 | 9.0 | 0.00 | 0.16 | 0.16 | 61 | 1014.0 |
| 20260508065444 | 44 | 169 | 5.0 | 5.0 | 0.00 | 0.16 | 0.16 | 62 | 1013.9 |
| 20260508064943 | 44 | 132 | 2.0 | 6.0 | 0.00 | 0.16 | 0.16 | 62 | 1013.6 |
| 20260508064440 | 45 | 90 | 0.0 | 8.0 | 0.00 | 0.16 | 0.16 | 62 | 1014.0 |
| 20260508063937 | 45 | 156 | 2.0 | 6.0 | 0.00 | 0.16 | 0.16 | 61 | 1013.7 |
| 20260508063434 | 45 | 145 | 1.0 | 12.0 | 0.00 | 0.16 | 0.16 | 62 | 1014.0 |
| 20260508062932 | 45 | 162 | 1.0 | 7.0 | 0.00 | 0.16 | 0.16 | 62 | 1013.9 |
| 20260508062429 | 45 | 127 | 2.0 | 4.0 | 0.00 | 0.16 | 0.16 | 63 | 1014.2 |
| 20260508061926 | 45 | 69 | 3.0 | 7.0 | 0.00 | 0.16 | 0.16 | 63 | 1014.0 |
| 20260508061424 | 45 | 151 | 4.0 | 7.0 | 0.00 | 0.16 | 0.16 | 63 | 1014.1 |
| 20260508060920 | 45 | 155 | 4.0 | 10.0 | 0.00 | 0.16 | 0.16 | 62 | 1013.8 |
| 20260508060418 | 45 | 155 | 4.0 | 14.0 | 0.00 | 0.16 | 0.16 | 62 | 1014.0 |
| 20260508055913 | 45 | 47 | 3.0 | 6.0 | 0.00 | 0.16 | 0.16 | 64 | 1014.1 |
| 20260508055410 | 45 | 71 | 3.0 | 5.0 | 0.00 | 0.16 | 0.16 | 64 | 1013.9 |
| 20260508054907 | 45 | 111 | 3.0 | 6.0 | 0.00 | 0.16 | 0.16 | 64 | 1014.0 |
| 20260508054404 | 45 | 151 | 8.0 | 11.0 | 0.00 | 0.16 | 0.16 | 63 | 1014.1 |
| 20260508053901 | 45 | 147 | 4.0 | 8.0 | 0.00 | 0.16 | 0.16 | 63 | 1014.1 |
| 20260508053358 | 45 | 175 | 4.0 | 7.0 | 0.00 | 0.16 | 0.16 | 63 | 1014.0 |
| 20260508052855 | 46 | 66 | 4.0 | 9.0 | 0.00 | 0.16 | 0.16 | 62 | 1014.1 |
| 20260508052353 | 46 | 150 | 3.0 | 12.0 | 0.00 | 0.16 | 0.16 | 62 | 1014.2 |
| 20260508051849 | 46 | 90 | 3.0 | 13.0 | 0.00 | 0.16 | 0.16 | 61 | 1013.9 |
| 20260508051345 | 46 | 102 | 2.0 | 10.0 | 0.00 | 0.16 | 0.16 | 62 | 1014.0 |
| 20260508050841 | 46 | 115 | 2.0 | 6.0 | 0.00 | 0.16 | 0.16 | 62 | 1014.1 |
| 20260508050338 | 46 | 124 | 6.0 | 12.0 | 0.00 | 0.16 | 0.16 | 61 | 1014.1 |
| 20260508045834 | 46 | 144 | 6.0 | 12.0 | 0.00 | 0.16 | 0.16 | 61 | 1014.1 |
| 20260508045332 | 46 | 47 | 3.0 | 6.0 | 0.00 | 0.16 | 0.16 | 61 | 1014.3 |
| 20260508044829 | 47 | 169 | 5.0 | 11.0 | 0.00 | 0.16 | 0.16 | 59 | 1014.4 |
| 20260508044325 | 47 | 211 | 5.0 | 13.0 | 0.00 | 0.16 | 0.16 | 60 | 1014.2 |
| 20260508043821 | 47 | 147 | 8.0 | 12.0 | 0.00 | 0.16 | 0.16 | 60 | 1014.0 |
| 20260508043319 | 47 | 182 | 6.0 | 6.0 | 0.00 | 0.16 | 0.16 | 60 | 1014.3 |
| 20260508042815 | 47 | 152 | 5.0 | 8.0 | 0.00 | 0.16 | 0.16 | 60 | 1014.5 |
| 20260508042313 | 47 | 115 | 2.0 | 9.0 | 0.00 | 0.16 | 0.16 | 58 | 1014.4 |
| 20260508041810 | 48 | 102 | 6.0 | 7.0 | 0.00 | 0.16 | 0.16 | 58 | 1014.4 |
| 20260508041306 | 48 | 185 | 3.0 | 8.0 | 0.00 | 0.16 | 0.16 | 58 | 1014.4 |
| 20260508040803 | 48 | 150 | 2.0 | 11.0 | 0.00 | 0.16 | 0.16 | 57 | 1014.4 |
| 20260508040301 | 48 | 124 | 4.0 | 13.0 | 0.00 | 0.16 | 0.16 | 58 | 1014.4 |
| 20260508035757 | 48 | 30 | 1.0 | 5.0 | 0.00 | 0.16 | 0.16 | 57 | 1014.4 |
| 20260508035255 | 48 | 90 | 2.0 | 7.0 | 0.00 | 0.16 | 0.16 | 56 | 1014.4 |
| 20260508034751 | 48 | 159 | 6.0 | 8.0 | 0.00 | 0.16 | 0.16 | 55 | 1014.4 |
| 20260508034249 | 48 | 137 | 5.0 | 13.0 | 0.00 | 0.16 | 0.16 | 55 | 1014.6 |
| 20260508033746 | 49 | 109 | 3.0 | 5.0 | 0.00 | 0.16 | 0.16 | 54 | 1014.7 |
| 20260508033244 | 49 | 175 | 3.0 | 7.0 | 0.00 | 0.16 | 0.16 | 54 | 1014.8 |
| 20260508032741 | 49 | 168 | 3.0 | 5.0 | 0.00 | 0.16 | 0.16 | 53 | 1014.6 |
| 20260508032238 | 49 | 209 | 3.0 | 7.0 | 0.00 | 0.16 | 0.16 | 53 | 1014.7 |
| 20260508031735 | 50 | 156 | 3.0 | 5.0 | 0.00 | 0.16 | 0.16 | 53 | 1014.7 |
| 20260508031231 | 50 | 143 | 3.0 | 13.0 | 0.00 | 0.16 | 0.16 | 52 | 1014.7 |
| 20260508030728 | 49 | 214 | 3.0 | 9.0 | 0.00 | 0.16 | 0.16 | 53 | 1014.6 |
| 20260508030225 | 49 | 84 | 3.0 | 11.0 | 0.00 | 0.16 | 0.16 | 52 | 1014.5 |
| 20260508025721 | 50 | 125 | 3.0 | 11.0 | 0.00 | 0.16 | 0.16 | 52 | 1014.7 |
| 20260508025219 | 50 | 135 | 2.0 | 5.0 | 0.00 | 0.16 | 0.16 | 52 | 1014.8 |
| 20260508024714 | 50 | 45 | 6.0 | 6.0 | 0.00 | 0.16 | 0.16 | 51 | 1015.1 |
| 20260508024212 | 50 | 114 | 0.0 | 10.0 | 0.00 | 0.16 | 0.16 | 52 | 1014.8 |
| 20260508023708 | 50 | 119 | 2.0 | 11.0 | 0.00 | 0.16 | 0.16 | 50 | 1014.9 |
| 20260508023206 | 50 | 151 | 3.0 | 11.0 | 0.00 | 0.16 | 0.16 | 52 | 1014.9 |
| 20260508022701 | 50 | 90 | 2.0 | 6.0 | 0.00 | 0.16 | 0.16 | 52 | 1015.2 |
| 20260508022158 | 50 | 150 | 3.0 | 12.0 | 0.00 | 0.16 | 0.16 | 50 | 1015.2 |
| 20260508021655 | 50 | 82 | 0.0 | 9.0 | 0.00 | 0.16 | 0.16 | 52 | 1015.2 |
| 20260508021150 | 50 | 134 | 11.0 | 11.0 | 0.00 | 0.16 | 0.16 | 52 | 1015.3 |
| 20260508020648 | 50 | 143 | 6.0 | 12.0 | 0.00 | 0.16 | 0.16 | 50 | 1015.3 |
| 20260508020145 | 51 | 59 | 0.0 | 11.0 | 0.00 | 0.16 | 0.16 | 50 | 1015.1 |
| 20260508015643 | 51 | 117 | 4.0 | 13.0 | 0.00 | 0.16 | 0.16 | 49 | 1015.0 |
| 20260508015140 | 51 | 122 | 3.0 | 12.0 | 0.00 | 0.16 | 0.16 | 49 | 1015.2 |
| 20260508014636 | 51 | 137 | 9.0 | 11.0 | 0.00 | 0.16 | 0.16 | 49 | 1015.2 |
| 20260508014132 | 51 | 132 | 6.0 | 13.0 | 0.00 | 0.16 | 0.16 | 48 | 1015.1 |
| 20260508013628 | 53 | 155 | 3.0 | 6.0 | 0.00 | 0.16 | 0.16 | 48 | 1015.2 |
| 20260508013125 | 52 | 194 | 4.0 | 9.0 | 0.00 | 0.16 | 0.16 | 46 | 1015.5 |
| 20260508012623 | 53 | 94 | 3.0 | 9.0 | 0.00 | 0.16 | 0.16 | 47 | 1015.6 |
| 20260508012120 | 52 | 174 | 0.0 | 5.0 | 0.00 | 0.16 | 0.16 | 55 | 1015.6 |
| 20260508011618 | 51 | 349 | 3.0 | 5.0 | 0.00 | 0.16 | 0.16 | 60 | 1015.7 |
| 20260508011115 | 51 | 231 | 2.0 | 2.0 | 0.00 | 0.16 | 0.16 | 59 | 1015.6 |
| 20260508010612 | 50 | 211 | 3.0 | 5.0 | 0.00 | 0.16 | 0.16 | 61 | 1015.4 |
| 20260508010110 | 51 | 146 | 2.0 | 7.0 | 0.00 | 0.16 | 0.16 | 60 | 1015.7 |
| 20260508005606 | 51 | 154 | 3.0 | 5.0 | 0.00 | 0.16 | 0.16 | 62 | 1015.4 |
| 20260508005103 | 53 | 194 | 5.0 | 9.0 | 0.00 | 0.16 | 0.16 | 57 | 1015.7 |
| 20260508004559 | 52 | 189 | 5.0 | 9.0 | 0.00 | 0.16 | 0.16 | 54 | 1015.7 |
| 20260508004056 | 51 | 228 | 2.0 | 5.0 | 0.00 | 0.16 | 0.16 | 52 | 1015.8 |
| 20260508003552 | 52 | 168 | 6.0 | 7.0 | 0.00 | 0.16 | 0.16 | 52 | 1015.7 |
| 20260508003050 | 52 | 41 | 2.0 | 7.0 | 0.00 | 0.16 | 0.16 | 54 | 1015.8 |
| 20260508002546 | 53 | 71 | 1.0 | 15.0 | 0.00 | 0.16 | 0.16 | 48 | 1015.7 |